Sitka, AK

9:58 AM AKDT on May 26, 2018 (GMT -0800)
Sitka Rocky Gutierrez

Weather History for PASI - October, 2010

Change the Weather History Date:

Sunday, October 24, 2010

  Actual Average Record
Temperature  
Mean Temperature 50 °F 44 °F  
Max Temperature 57 °F 48 °F 58 °F (1979)
Min Temperature 43 °F 40 °F 30 °F (1951)
Degree Days  
Heating Degree Days 15 21  
Month to date heating degree days 432  
Moisture  
Dew Point 34 °F    
Average Humidity 58    
Maximum Humidity 74    
Minimum Humidity 34    
Precipitation  
Precipitation 0.00 in 0.40 in 2.98 in (1978)
Month to date precipitation 10.32  
Year to date precipitation 65.55  
Sea Level Pressure  
Sea Level Pressure 29.12 in    
Wind  
Wind Speed 3 mph (NNE)    
Max Wind Speed 9 mph    
Max Gust Speed 16 mph    
Visibility 10 miles    
Events      
T = Trace of Precipitation, MM = Missing Value Source: NWS Daily Summary

Daily Weather History Graph

Daily Weather History Graph

Search for Another Location

Airport or City:

Astronomy

Oct. 24, 2010 Rise Set
Actual Time 7:54 AM AKDT 5:35 PM AKDT
Civil Twilight 7:14 AM AKDT 6:15 PM AKDT
Nautical Twilight 6:30 AM AKDT 6:59 PM AKDT
Astronomical Twilight 5:46 AM AKDT 7:43 PM AKDT
Moon 5:39 PM AKDT (10/24) 10:25 AM AKDT (10/24)
Length of Visible Light 11h 00m
Length of Day
9h 40m
Full, 97% of the Moon is Illuminated
Oct 24
Full
Oct 30
Last Quarter
Nov 5
New
Nov 13
First Quarter
Nov 21
Full

Hourly Weather History & Observations

Time (AKDT) Temp. Windchill Dew Point Humidity Pressure Visibility Wind Dir Wind Speed Gust Speed Precip Events Conditions
12:53 AM 48.0 °F - 39.9 °F 74% 29.15 in 10.0 mi NW 4.6 mph - N/A   Clear
1:53 AM 46.9 °F - 37.0 °F 68% 29.12 in 10.0 mi Calm Calm - N/A   Clear
2:53 AM 46.9 °F - 34.0 °F 61% 29.10 in 10.0 mi Variable 5.8 mph - N/A   Clear
3:53 AM 43.0 °F 39.5 °F 34.0 °F 71% 29.08 in 10.0 mi North 5.8 mph - N/A   Clear
4:53 AM 45.0 °F 43.5 °F 33.1 °F 63% 29.08 in 10.0 mi NNE 3.5 mph - N/A   Clear
5:53 AM 43.0 °F - 34.0 °F 71% 29.08 in 10.0 mi Calm Calm - N/A   Clear
6:53 AM 44.1 °F - 33.1 °F 65% 29.07 in 10.0 mi Calm Calm - N/A   Clear
7:53 AM 44.1 °F - 33.1 °F 65% 29.06 in 10.0 mi Calm Calm - N/A   Clear
8:53 AM 44.1 °F 42.5 °F 35.1 °F 71% 29.07 in 10.0 mi NNW 3.5 mph - N/A   Clear
9:53 AM 46.9 °F - 37.9 °F 71% 29.06 in 10.0 mi Calm Calm - N/A   Clear
10:53 AM 51.1 °F - 36.0 °F 56% 29.07 in 10.0 mi NNW 3.5 mph - N/A   Clear
11:53 AM 51.1 °F - 36.0 °F 56% 29.07 in 10.0 mi NW 3.5 mph - N/A   Clear
12:53 PM 53.1 °F - 33.1 °F 47% 29.08 in 10.0 mi WNW 3.5 mph - N/A   Clear
1:53 PM 57.0 °F - 28.9 °F 34% 29.08 in 10.0 mi East 9.2 mph 16.1 mph N/A   Clear
2:53 PM 55.9 °F - 30.9 °F 39% 29.10 in 10.0 mi East 5.8 mph - N/A   Clear
3:53 PM 55.9 °F - 32.0 °F 40% 29.11 in 10.0 mi East 6.9 mph - N/A   Partly Cloudy
4:53 PM 55.0 °F - 30.9 °F 40% 29.13 in 10.0 mi East 5.8 mph - N/A   Mostly Cloudy
5:53 PM 53.1 °F - 30.9 °F 43% 29.15 in 10.0 mi ESE 4.6 mph - N/A   Mostly Cloudy
6:53 PM 53.1 °F - 30.9 °F 43% 29.17 in 10.0 mi Calm Calm - N/A   Overcast
7:53 PM 51.1 °F - 37.0 °F 59% 29.19 in 10.0 mi Calm Calm - N/A   Overcast
8:53 PM 50.0 °F - 41.0 °F 71% 29.21 in 10.0 mi West 4.6 mph - N/A   Overcast
9:53 PM 50.0 °F - 36.0 °F 59% 29.22 in 10.0 mi Calm Calm - N/A   Overcast
10:53 PM 50.0 °F - 35.1 °F 57% 29.24 in 10.0 mi Calm Calm - N/A   Overcast
11:53 PM 51.1 °F - 37.0 °F 59% 29.26 in 10.0 mi Calm Calm - N/A   Overcast